Location: ????
(55.2778°N, 39.2433°E)
Time: 19:22:44
(UTC+00:00)

Cosmos 1980 - Pass Details

Date: 14 April 2024
Orbit: 840 x 845 km, 71.0° (Epoch: 17 May)

Event Time Altitude Azimuth Distance (km) Brightness Sun altitude
Exits shadow 01:31:03 - 219° (SW) 2,759 5.8 -7.4°
Reaches altitude 10° 01:31:50 10° 220° (SW) 2,458 5.5 -7.3°
Maximum altitude 01:37:29 76° 306° (NW) 874 3.8 -6.6°
Drops below altitude 10° 01:43:10 10° 32° (NNE) 2,470 7.2 -5.8°
Sets 01:45:38 0° 35° (NE) 3,408 8.0 -5.5°
